Погода в Коростелево

Россия / Тамбовская область     51°50′05″N   42°25′09″E
темп.,
°C
ветер,
м/с
пор.,
м/с
влажн.,
%
обл.,
%
осадки,
мм/ч
давл.,
гПа
погр.,
м
24 мая, вт
вт2400:00+4з22790 0.0 100813
03:00+3юз34825 0.0 100854
06:00+7зюз38785 0.0 1008189
09:00+13зюз57615 0.0 1007893
12:00+15з6748100 0.0 10072346
15:00+15зюз4758100 0.0 10071573
18:00+14з476297 0.3 1007258
21:00+9зсз467766 0.4 100986
25 мая, ср
ср2500:00+5ссв11855 0.0 101010
03:00+5ссз238589 0.0 101142
06:00+6с4682100 0.0 1013317
09:00+9сз4666100 0.0 10141262
12:00+9ссз4460100 0.0 10151161
15:00+10сз3555100 0.0 10161726
18:00+10сз356283 0.0 10161032
21:00+6зюз226995 0.0 101711
26 мая, чт
чт2600:00+5юз227394 0.0 101825
03:00+6ююз377544 0.0 1017188
06:00+8зюз358199 0.0 1017169
09:00+12юз346756 0.0 1016574
12:00+17юз575453 0.0 10151860
15:00+19юз5750100 0.1 10132274
18:00+14ююз3673100 0.1 1012137
21:00+12юз3892100 0.9 1011237
27 мая, пт
пт2700:00+12ююз81495100 3.2 10081050
03:00+11юз91594100 4.2 10061036
06:00+10зюз8148770 0.4 1007860
09:00+14зюз71274100 0.4 1007960
12:00+13зюз8118424 1.1 10081002
15:00+17з813665 2.4 10081860
18:00+16зсз612685 0.1 10091322
21:00+11з348299 0.1 101151
28 мая, сб
сб2800:00+10юз3686100 0.0 1011102
03:00+9ююз49895 0.0 1011147
06:00+12ю6138217 0.0 1010372
09:00+15ююз71680100 0.0 1008576
12:00+17юз8137768 0.0 10091038
15:00+14сз5883100 0.5 1010394
18:00+12зюз379174 1.1 1012331
21:00+11ююз359668 1.1 101398